SCP
2 2 2 2 3 3 3 3 2 2 3 4 4 3 4 3 2 1 1 1 0 0 0 0 0 0 0 0 0 0 0 0 0 0 0 1 1 1
1 1 2 2 2 2 3 3 2 2 3 4 4 4 3 3 2 2 1 1 0 0 0 0 0 0 0 0 0 0 0 0 0 0 0 1 1 1
1 1 1 1 2 2 2 3 2 2 3 4 4 3 3 3 2 2 1 1 0 0 0 0 0 0 0 0 0 0 0 0 0 0 0 0 0 1
1 1 1 1 1 1 2 2 2 3 3 3 3 3 3 3 2 2 1 1 0 0 0 0 0 0 0 0 0 0 0 0 0 0 0 0 0 0
1 1 1 1 1 1 1 2 2 2 3 3 3 3 3 2 2 2 1 1 1 0 0 0 0 0 0 0 0 0 0 0 0 0 0 0 0 0
1 1 1 1 1 1 1 1 1 2 2 2 2 2 3 3 2 2 1 1 1 0 0 0 0 0 0 0 0 0 0 0 0 0 0 0 0 0
1 1 1 1 1 1 1 1 1 1 2 2 2 2 2 3 2 2 2 1 1 1 1 1 0 0 0 0 0 0 0 0 0 0 0 0 0 0
1 1 1 1 1 0 0 1 1 1 1 2 2 2 2 2 3 3 2 2 1 1 1 1 1 0 0 0 0 0 0 0 0 0 0 0 0 0
1 1 1 1 0 0 0 0 1 1 1 1 1 1 2 2 3 3 3 2 1 1 1 1 1 0 0 0 0 0 0 0 0 0 0 0 0 0
1 1 1 1 0 0 0 0 0 0 1 1 1 1 1 2 2 2 2 2 1 1 1 1 0 0 0 0 0 0 0 0 0 0 0 0 0 0
1 1 1 1 0 0 0 0 1 0 0 0 0 0 0 1 1 1 2 2 1 1 1 0 0 0 0 0 0 0 0 0 0 0 0 0 0 0
1 1 1 0 0 0 0 0 0 0 0 0 0 0 0 0 0 1 1 1 1 1 1 0 0 0 0 0 0 0 0 0 0 0 0 0 0 0
1 0 0 0 0 0 0 0 0 0 1 1 1 1 1 1 1 1 1 1 1 1 1 0 0 0 0 0 0 0 0 0 0 0 0 0 0 0
0 0 0 0 0 0 0 0 0 0 1 1 1 1 1 1 1 1 1 1 1 1 1 0 0 0 0 0 0 0 0 0 0 0 0 0 0 0
0 0 0 0 0 0 0 0 0 0 0 1 1 1 1 1 1 1 1 1 1 1 0 0 0 0 0 0 0 0 0 0 0 0 0 0 0 0
0 0 0 0 0 0 0 0 0 0 0 1 1 1 1 1 1 1 1 1 1 1 1 0 0 0 0 0 0 0 0 0 0 0 0 0 0 0
0 0 0 0 0 0 0 0 0 0 0 0 1 1 1 1 1 1 1 1 1 1 1 1 0 0 0 0 0 0 0 0 0 0 0 0 0 0
0 0 0 0 0 0 0 0 0 0 0 0 1 1 1 1 1 1 1 1 1 1 1 1 0 0 0 0 0 0 0 0 0 0 0 0 0 0
0 0 0 0 0 0 0 0 0 0 0 0 0 1 1 1 1 1 1 1 1 1 1 1 0 0 0 0 0 0 0 0 0 0 0 0 0 0
0 0 0 0 0 0 0 0 0 0 0 0 0 1 1 1 1 1 1 1 1 0 0 1 0 0 0 0 0 0 0 0 0 0 0 0 0 0
0 0 0 0 0 0 0 0 0 0 0 1 1 0 0 1 1 1 1 1 0 0 1 1 0 0 0 0 0 0 0 0 0 0 0 0 0 0
0 0 0 0 0 0 0 0 0 0 1 1 1 0 0 1 1 0 0 0 0 0 0 0 0 0 0 0 0 0 0 0 0 0 0 0 0 0
0 0 0 0 0 0 0 0 0 1 1 1 1 0 0 1 1 0 0 1 0 0 0 0 0 0 0 0 0 0 0 0 0 0 0 0 0 0
Wind_Speed
3 3 3 3 2 3 2 1 2 2 2 3 2 3 4 6 10 6 7 9 8 7 6 6 6 6 5 5 5 4 4 4 5 7 8 10 12 13
2 2 3 3 2 2 1 1 1 2 2 2 1 3 5 6 8 7 8 11 9 8 7 7 6 6 5 5 4 4 4 4 5 6 7 8 8 10
4 3 3 3 2 2 2 2 2 1 3 2 1 3 4 6 6 7 7 6 6 8 8 7 7 6 5 5 4 3 3 3 4 4 5 6 7 8
5 4 4 3 3 2 2 2 2 2 3 3 2 2 3 5 7 7 6 6 6 8 9 8 7 7 6 5 4 3 2 2 2 3 4 4 6 7
6 5 4 4 4 2 2 2 2 2 3 3 3 3 3 4 6 5 5 5 7 8 8 8 7 7 7 5 5 4 3 2 1 1 2 3 3 4
6 6 5 5 4 4 3 3 2 2 3 3 4 4 4 5 5 6 5 4 5 6 6 7 7 8 7 7 6 5 4 4 3 3 2 2 3 3
8 7 7 7 7 6 5 3 2 2 2 3 4 4 5 6 6 5 6 5 4 5 6 5 5 4 4 6 6 6 5 5 5 5 5 6 6 7
8 8 8 8 9 10 8 7 5 3 2 2 3 4 5 5 5 6 6 6 5 5 5 5 5 4 4 4 5 7 7 7 8 8 8 9 9 10
8 7 9 9 10 9 10 12 10 9 7 4 4 4 3 4 5 7 7 7 5 7 6 5 4 5 4 5 8 8 8 9 9 10 11 11 12 12
7 8 7 6 7 7 8 8 8 8 9 7 5 5 4 3 4 5 6 5 4 5 5 4 4 5 6 5 7 8 9 9 10 11 12 13 13 13
8 8 8 8 10 10 7 7 7 6 10 11 10 9 9 8 5 3 5 6 6 5 4 4 6 5 4 4 5 8 9 9 10 11 13 13 14 13
6 7 9 10 11 12 8 7 7 6 6 6 7 9 8 8 9 7 6 7 6 5 6 5 7 5 4 3 4 5 5 7 9 10 10 10 9 7
6 6 6 12 13 14 11 7 7 5 4 4 5 6 6 6 7 7 7 7 6 4 7 7 7 5 5 5 4 5 5 5 5 5 6 6 5 5
5 4 4 8 12 13 10 8 8 6 4 4 4 5 6 7 7 8 8 8 7 5 8 8 6 7 7 7 5 6 6 5 5 5 4 4 3 5
3 2 3 6 8 8 10 10 8 5 5 6 6 6 6 6 6 6 7 6 6 6 8 7 6 7 7 6 7 8 7 6 5 5 5 4 4 5
5 4 6 7 6 6 7 8 7 6 6 6 6 6 5 5 6 6 6 6 5 4 5 6 6 8 5 7 8 8 7 7 7 6 5 4 4 4
4 4 5 5 6 6 6 7 8 8 7 6 6 6 5 5 5 6 6 7 6 7 6 4 4 5 6 7 8 8 7 6 7 6 6 5 4 4
3 4 5 6 7 7 7 7 7 7 7 7 7 6 5 6 6 6 6 7 7 7 7 6 6 5 4 3 6 8 7 6 7 7 6 5 5 5
3 5 5 6 6 6 6 6 7 7 6 7 7 6 6 6 6 7 7 7 7 7 7 7 7 7 7 6 4 6 7 6 7 6 5 4 5 6
5 6 5 5 5 5 6 6 6 6 6 6 6 6 6 6 6 7 8 8 8 7 8 8 7 7 7 7 6 4 7 8 7 7 6 3 3 5
6 6 5 5 5 5 5 5 6 6 6 6 6 6 6 6 6 7 7 10 9 8 9 8 7 8 5 6 6 5 4 5 7 7 7 5 4 4
4 4 4 5 5 5 4 5 5 5 6 6 6 6 6 6 7 8 8 9 8 8 8 7 7 6 5 7 8 7 6 4 4 7 6 5 5 6
3 4 4 4 4 4 4 5 6 5 5 6 6 6 6 6 6 7 8 8 8 8 9 8 7 5 5 6 7 7 8 7 5 4 2 4 7 7
Wind_Direction
267 271 266 253 261 264 259 251 204 206 212 202 167 149 132 122 149 143 137 146 146 146 146 149 154 159 163 172 182 192 208 217 226 234 237 236 236 235
233 254 269 270 270 269 264 267 253 204 211 207 166 153 144 142 157 137 131 138 136 138 135 136 139 142 145 150 160 178 197 214 226 233 233 230 232 233
231 225 236 254 266 277 262 237 239 231 221 222 145 154 142 135 136 127 137 139 133 134 131 129 129 128 132 139 146 162 181 202 213 221 228 230 229 230
220 220 226 235 230 253 266 256 234 223 201 200 173 162 150 143 146 148 151 145 134 134 131 127 122 118 118 126 133 142 153 178 206 224 231 234 234 231
213 211 217 226 229 229 238 253 251 241 199 187 192 175 164 159 153 150 141 133 132 137 130 125 123 118 111 109 111 115 120 128 146 206 222 218 219 217
213 207 206 213 221 220 228 230 238 242 228 199 191 183 178 167 159 153 149 148 144 152 136 127 125 118 112 105 102 100 102 106 105 103 105 131 138 140
211 208 211 208 207 210 221 213 228 227 228 217 198 190 179 171 175 168 162 152 150 149 142 144 145 133 119 108 98 95 96 98 96 95 95 100 103 104
211 207 214 206 204 206 208 210 213 227 230 238 231 205 190 185 179 175 162 159 166 163 155 155 152 135 124 103 101 103 101 99 98 97 96 98 98 97
213 204 222 221 196 196 205 212 217 223 220 223 239 238 215 196 187 185 182 178 165 161 157 146 137 118 103 100 108 107 105 103 103 102 99 96 94 92
219 205 207 227 216 199 202 208 209 213 215 220 224 235 234 212 205 197 187 168 139 153 157 137 136 122 109 103 106 111 110 109 109 109 107 103 97 92
228 220 206 210 215 205 204 211 212 215 218 217 210 216 220 213 188 175 181 173 165 166 165 135 136 124 118 115 111 109 111 114 115 116 115 113 109 100
221 226 221 215 207 201 203 209 212 213 222 217 210 215 215 212 200 193 190 186 169 165 172 145 147 143 134 131 136 136 119 111 118 122 126 128 126 113
221 216 219 211 205 198 201 207 209 208 217 225 210 202 199 202 203 200 197 192 185 174 166 152 156 160 140 141 148 156 149 146 141 135 137 141 137 127
223 222 210 198 196 196 200 207 198 196 214 220 222 213 201 197 200 202 198 194 192 183 167 160 157 167 147 147 148 156 158 160 157 155 157 153 149 140
230 212 187 177 180 194 208 201 192 203 218 222 221 219 209 197 191 190 185 181 177 174 167 172 161 161 156 152 148 156 157 165 167 163 163 164 161 147
223 201 189 186 197 205 190 197 205 213 215 221 219 218 206 190 186 177 175 169 160 160 165 173 168 161 158 151 150 157 160 162 169 167 161 163 166 165
194 196 200 193 205 210 207 199 201 207 216 222 221 215 199 186 183 175 171 165 166 164 163 166 159 151 150 148 154 161 161 157 161 162 158 162 172 173
189 210 212 213 213 213 210 208 204 206 206 206 213 213 197 186 181 176 174 172 169 165 165 159 148 137 126 116 156 160 161 159 159 161 164 164 175 176
217 226 223 222 222 220 217 215 212 208 207 205 205 203 193 187 178 176 179 175 170 165 162 159 161 159 157 155 167 178 163 155 156 164 176 170 173 171
230 234 232 227 225 222 221 217 214 210 205 202 199 194 188 185 178 177 180 175 167 162 159 163 172 172 168 158 149 164 171 157 157 166 174 167 139 139
225 229 233 231 225 222 220 216 213 204 195 192 192 186 186 182 176 178 180 169 162 162 166 170 175 166 140 126 134 141 146 153 160 161 164 157 151 147
233 229 229 231 229 223 219 215 211 202 192 191 185 181 182 179 178 179 175 169 167 164 163 158 153 153 147 151 154 151 143 130 118 130 148 164 167 176
244 237 231 229 221 213 210 210 208 198 190 188 182 177 176 174 174 173 168 166 164 159 153 152 153 154 155 152 150 149 149 149 149 140 125 130 127 128